| time (UTC) | temp C | wind direction | speed KPH | gust KPH | rain 1hr cm | rain 24hr cm | rain mn cm | humidity % | barometer mb |
| 20260503050043 | 3 | 0 | 0.0 | 3.2 | 0.00 | 0.05 | 0.00 | 70 | 1012.4 |
| 20260503044542 | 3 | 228 | 0.0 | 4.8 | 0.00 | 0.15 | 0.00 | 71 | 1012.4 |
| 20260503043050 | 3 | 0 | 0.0 | 3.2 | 0.00 | 0.15 | 0.00 | 71 | 1012.5 |
| 20260503041538 | 3 | 0 | 0.0 | 1.6 | 0.00 | 0.15 | 0.00 | 70 | 1012.5 |
| 20260503040039 | 3 | 0 | 0.0 | 3.2 | 0.00 | 0.15 | 0.00 | 71 | 1012.7 |
| 20260503034554 | 3 | 0 | 0.0 | 1.6 | 0.00 | 0.41 | 0.15 | 70 | 1012.8 |
| 20260503033041 | 4 | 0 | 0.0 | 0.0 | 0.00 | 0.41 | 0.15 | 69 | 1012.9 |
| 20260503031537 | 5 | 0 | 0.0 | 0.0 | 0.00 | 0.41 | 0.15 | 67 | 1013.0 |
| 20260503030037 | 5 | 242 | 0.0 | 3.2 | 0.00 | 0.41 | 0.15 | 64 | 1013.2 |
| 20260503024538 | 6 | 0 | 0.0 | 0.0 | 0.00 | 0.43 | 0.15 | 62 | 1013.1 |
| 20260503023037 | 6 | 242 | 0.0 | 3.2 | 0.00 | 0.43 | 0.15 | 59 | 1013.3 |
| 20260503021542 | 6 | 0 | 0.0 | 3.2 | 0.00 | 0.43 | 0.15 | 58 | 1013.3 |
| 20260503020040 | 6 | 262 | 0.0 | 4.8 | 0.00 | 0.43 | 0.15 | 57 | 1013.4 |
| 20260503014538 | 7 | 0 | 0.0 | 4.8 | 0.00 | 0.43 | 0.15 | 56 | 1013.4 |
| 20260503013042 | 7 | 271 | 0.0 | 6.4 | 0.00 | 0.43 | 0.15 | 54 | 1013.4 |
| 20260503011537 | 7 | 304 | 0.0 | 6.4 | 0.00 | 0.43 | 0.15 | 54 | 1013.2 |
| 20260503010038 | 7 | 269 | 1.6 | 4.8 | 0.00 | 0.43 | 0.15 | 54 | 1013.2 |
| 20260503004605 | 8 | 0 | 0.0 | 8.0 | 0.00 | 0.43 | 0.15 | 54 | 1013.0 |
| 20260503003045 | 8 | 352 | 0.0 | 6.4 | 0.00 | 0.43 | 0.15 | 52 | 1012.9 |
| 20260503001545 | 8 | 274 | 1.6 | 4.8 | 0.00 | 0.43 | 0.15 | 51 | 1012.7 |
| 20260503000043 | 8 | 234 | 1.6 | 3.2 | 0.00 | 0.43 | 0.15 | 50 | 1012.7 |
| 20260502234549 | 9 | 255 | 1.6 | 11.3 | 0.00 | 0.43 | 0.15 | 49 | 1012.6 |
| 20260502233041 | 9 | 276 | 1.6 | 9.7 | 0.00 | 0.43 | 0.15 | 49 | 1012.5 |
| 20260502231542 | 10 | 276 | 3.2 | 11.3 | 0.00 | 0.43 | 0.15 | 48 | 1012.2 |
| 20260502230040 | 10 | 202 | 1.6 | 9.7 | 0.00 | 0.43 | 0.15 | 48 | 1012.1 |
| 20260502224544 | 10 | 263 | 3.2 | 9.7 | 0.00 | 0.43 | 0.15 | 46 | 1012.1 |
| 20260502223042 | 11 | 211 | 1.6 | 12.9 | 0.00 | 0.43 | 0.15 | 45 | 1012.0 |
| 20260502221544 | 11 | 265 | 1.6 | 9.7 | 0.00 | 0.43 | 0.15 | 46 | 1011.8 |
| 20260502220039 | 11 | 272 | 3.2 | 9.7 | 0.00 | 0.43 | 0.15 | 45 | 1011.6 |
| 20260502214553 | 11 | 244 | 3.2 | 11.3 | 0.00 | 0.43 | 0.15 | 46 | 1011.5 |
| 20260502213039 | 11 | 302 | 4.8 | 14.5 | 0.00 | 0.43 | 0.15 | 42 | 1011.5 |
| 20260502211538 | 12 | 292 | 3.2 | 12.9 | 0.00 | 0.43 | 0.15 | 42 | 1011.4 |
| 20260502210045 | 12 | 273 | 3.2 | 17.7 | 0.00 | 0.43 | 0.15 | 41 | 1011.4 |
| 20260502204537 | 12 | 271 | 3.2 | 16.1 | 0.00 | 0.43 | 0.15 | 42 | 1011.5 |
| 20260502203045 | 12 | 286 | 1.6 | 14.5 | 0.00 | 0.43 | 0.15 | 42 | 1011.6 |
| 20260502201543 | 12 | 273 | 4.8 | 14.5 | 0.00 | 0.43 | 0.15 | 42 | 1011.5 |
| 20260502200044 | 12 | 258 | 4.8 | 14.5 | 0.00 | 0.43 | 0.15 | 41 | 1011.6 |
| 20260502194538 | 12 | 270 | 4.8 | 19.3 | 0.00 | 0.43 | 0.15 | 40 | 1011.8 |
| 20260502193039 | 12 | 257 | 4.8 | 14.5 | 0.00 | 0.43 | 0.15 | 42 | 1011.7 |
| 20260502191540 | 12 | 277 | 9.7 | 19.3 | 0.00 | 0.43 | 0.15 | 40 | 1011.9 |
| 20260502190050 | 12 | 265 | 4.8 | 14.5 | 0.00 | 0.43 | 0.15 | 43 | 1012.0 |
| 20260502184542 | 13 | 160 | 6.4 | 16.1 | 0.00 | 0.43 | 0.15 | 44 | 1011.9 |
| 20260502183039 | 12 | 234 | 3.2 | 17.7 | 0.00 | 0.43 | 0.15 | 45 | 1011.7 |
| 20260502181544 | 12 | 246 | 3.2 | 9.7 | 0.00 | 0.43 | 0.15 | 48 | 1011.8 |
| 20260502163048 | 11 | 171 | 4.8 | 11.3 | 0.00 | 0.43 | 0.15 | 60 | 1012.5 |
| 20260502161545 | 10 | 0 | 1.6 | 6.4 | 0.00 | 0.43 | 0.15 | 64 | 1012.8 |
| 20260502151551 | 9 | 259 | 3.2 | 9.7 | 0.00 | 0.43 | 0.15 | 68 | 1013.0 |
| 20260502123047 | 6 | 240 | 1.6 | 9.7 | 0.00 | 0.43 | 0.15 | 90 | 1013.1 |
| 20260502121537 | 6 | 182 | 0.0 | 3.2 | 0.00 | 0.43 | 0.15 | 91 | 1013.1 |
| 20260502114548 | 5 | 0 | 0.0 | 4.8 | 0.00 | 0.43 | 0.15 | 92 | 1013.0 |
| 20260502113043 | 5 | 0 | 0.0 | 4.8 | 0.00 | 0.43 | 0.15 | 93 | 1012.9 |
| 20260502111540 | 5 | 254 | 1.6 | 4.8 | 0.00 | 0.43 | 0.15 | 93 | 1012.8 |
| 20260502110039 | 6 | 254 | 0.0 | 3.2 | 0.00 | 0.43 | 0.15 | 93 | 1012.8 |
| 20260502104538 | 6 | 0 | 0.0 | 1.6 | 0.00 | 0.43 | 0.15 | 94 | 1012.4 |
| 20260502103037 | 6 | 255 | 0.0 | 4.8 | 0.00 | 0.43 | 0.15 | 94 | 1012.2 |
| 20260502101540 | 6 | 227 | 0.0 | 4.8 | 0.00 | 0.43 | 0.15 | 93 | 1012.0 |
| 20260502100108 | 7 | 210 | 1.6 | 8.0 | 0.00 | 0.43 | 0.15 | 94 | 1011.7 |
| 20260502070048 | 7 | 0 | 0.0 | 1.6 | 0.03 | 0.43 | 0.15 | 93 | 1011.8 |
| 20260502064541 | 7 | 0 | 0.0 | 0.0 | 0.03 | 0.41 | 0.13 | 93 | 1011.7 |
| 20260502063038 | 7 | 0 | 0.0 | 1.6 | 0.03 | 0.41 | 0.13 | 93 | 1011.9 |
| 20260502061540 | 7 | 0 | 0.0 | 0.0 | 0.03 | 0.41 | 0.13 | 93 | 1011.9 |
| 20260502060038 | 7 | 0 | 0.0 | 1.6 | 0.03 | 0.41 | 0.13 | 93 | 1012.0 |
| 20260502054545 | 7 | 0 | 0.0 | 0.0 | 0.00 | 0.38 | 0.10 | 92 | 1012.1 |
| 20260502053041 | 7 | 240 | 0.0 | 4.8 | 0.00 | 0.38 | 0.10 | 92 | 1011.7 |
| 20260502051541 | 7 | 0 | 0.0 | 1.6 | 0.03 | 0.38 | 0.10 | 92 | 1012.2 |